Location: Acequia del Cap
(41.7000°N, 0.6167°E)
Time: 15:24:54
(UTC+00:00)

Cosmos 1726 - Pass Details

Date: 07 August 2020
Orbit: 482 x 498 km, 82.5° (Epoch: 23 September)

Event Time Altitude Azimuth Distance (km) Brightness Sun altitude
Exits shadow 03:38:35 24° 222° (SW) 1,063 3.2 -13.7°
Maximum altitude 03:40:26 43° 281° (W) 696 2.5 -13.4°
Drops below altitude 10° 03:43:59 10° 355° (N) 1,688 5.2 -12.9°
Sets 03:46:10 0° 2° (N) 2,571 6.3 -12.5°
